Zurück zum Katalog

STARLINK-30386

AktivKommunikationVLEO
NORAD 57816·PAYLOAD·🇺🇸 United States

Gestartet Sep 9, 2023 von Cape Canaveral Space Force Station

Loading…

Nächste Überflüge (nächste 24 Stunden)

TLE

AktuellSource: CelesTrak SupGP

Epoche: Sep 15, 2026, 01:59 UTC

1 57816C 23138J   26258.08312500 -.00015865  00000+0 -57465-3 0  2580
2 57816  43.0011 244.8400 0001513 262.9898 351.2130 15.27584959    15

Verfolge STARLINK-30386 in Echtzeit mit AllMySat

Download on the App Store